Regional Weather Roundup
Issued by NWS

Home | Current Version | Previous Version | Text Only | Print | Product List | Glossary On
Versions: 1 2 3 4 5 6 7 8 9 10 11 12 13 14 15 16 17 18 19 20 21 22 23 24 25 26 27 28 29 30 31 32 33 34 35 36 37 38 39 40 41 42 43 44 45 46 47 48 49 50
000
ASUS46 KSEW 040610
RWRWA

WASHINGTON REGIONAL WEATHER ROUNDUP
NATIONAL WEATHER SERVICE SEATTLE WA
1100 PM PDT SUN MAY 03 2015

NOTE:"FAIR" INDICATES FEW OR NO CLOUDS BELOW 12,000 FEET WITH NO
SIGNIFICANT WEATHER AND/OR OBSTRUCTIONS TO VISIBILITY.

WAZ505-507>509-040700-
SEATTLE, TACOMA, EVERETT, AND VICINITY

CITY           SKY/WX    TMP DP  RH WIND       PRES   REMARKS
EVERETT        CLEAR     51  40  65 N5        29.89F
6HR MIN TEMP:  51; 6HR MAX TEMP:  64;

BOEING FIELD   CLEAR     59  35  40 CALM      29.88S
6HR MIN TEMP:  58; 6HR MAX TEMP:  69;

RENTON         CLEAR     55  45  68 CALM      29.88S
6HR MIN TEMP:  55; 6HR MAX TEMP:  68;

SEATAC AIRPORT CLEAR     57  36  44 NW5       29.89S
6HR MIN TEMP:  57; 6HR MAX TEMP:  69;

JBLM-MCCHORD   NOT AVBL
PUYALLUP       FAIR      45  39  81 CALM      29.89R
BREMERTON      CLEAR     43  39  87 CALM      29.90F
6HR MIN TEMP:  43; 6HR MAX TEMP:  66;

JBLM-FT LEWIS  CLEAR     55  41  60 VRB1      29.88S
6HR MIN TEMP:  54; 6HR MAX TEMP:  69;

TACOMA NARROWS CLEAR     53  36  52 W3        29.89S
6HR MIN TEMP:  51; 6HR MAX TEMP:  66;

$$

WAZ001-503-506-510-514-515-040700-
NORTH INTERIOR

CITY           SKY/WX    TMP DP  RH WIND       PRES   REMARKS
BELLINGHAM     CLEAR     48  44  86 CALM      29.87F
6HR MIN TEMP:  47; 6HR MAX TEMP:  65;

FRIDAY HARBOR    N/A     44  39  82 CALM      29.89S
6HR MIN TEMP:  43; 6HR MAX TEMP:  65;

EASTSOUND      CLEAR     48  43  81 MISG      29.86S
PORT ANGELES   CLEAR     47  39  74 W6        29.90S
6HR MIN TEMP:  45; 6HR MAX TEMP:  65;

NAS WHIDBEY    CLEAR     51  43  74 CALM      29.89F
6HR MIN TEMP:  50; 6HR MAX TEMP:  60;

ARLINGTON      CLEAR     48  39  71 CALM      29.90S
6HR MIN TEMP:  48; 6HR MAX TEMP:  66;

BURLINGTON     CLEAR     48  43  81 CALM      29.88F
$$

WAZ020-022-039-040-504-511-512-040700-
SOUTHWEST INTERIOR

CITY           SKY/WX    TMP DP  RH WIND       PRES   REMARKS
SHELTON        CLEAR     51  41  68 W5        29.87F
6HR MIN TEMP:  51; 6HR MAX TEMP:  72;

OLYMPIA        CLEAR     48  42  80 S5        29.88F
6HR MIN TEMP:  48; 6HR MAX TEMP:  72;

CHEHALIS       FAIR      52  45  76 CALM      29.89F
KELSO          CLEAR     54  39  58 N3        29.94S
6HR MIN TEMP:  54; 6HR MAX TEMP:  73;

VANCOUVER      CLEAR     60  43  53 NW3       29.87R
6HR MIN TEMP:  60; 6HR MAX TEMP:  76;

SCAPPOOSE, OR  CLEAR     57  44  62 N6        29.86S
6HR MIN TEMP:  57; 6HR MAX TEMP:  75;

PORTLAND, OR   PTCLDY    59  45  59 NW7       29.87S
6HR MIN TEMP:  59; 6HR MAX TEMP:  76;

$$

WAZ021-516-517-040700-
WASHINGTON COAST

CITY           SKY/WX    TMP DP  RH WIND       PRES   REMARKS
FORKS          CLEAR     43  42  97 CALM      29.91F
6HR MIN TEMP:  43; 6HR MAX TEMP:  62;

HOQUIAM        PTCLDY    50  47  89 W3        29.92S
6HR MIN TEMP:  50; 6HR MAX TEMP:  61;

ASTORIA, OR    PTCLDY    47  44  90 SW6       29.92F
6HR MIN TEMP:  47; 6HR MAX TEMP:  60;

$$

WAZ019-023-024-040-518-519-040700-
CASCADE MOUNTAINS AND COLUMBIA GORGE

CITY           SKY/WX    TMP DP  RH WIND       PRES   REMARKS
TROUTDALE, OR  CLEAR     60  45  57 CALM      29.86R
6HR MIN TEMP:  60; 6HR MAX TEMP:  76;

THE DALLES, OR CLEAR     57  36  45 CALM      29.84R
6HR MIN TEMP:  56; 6HR MAX TEMP:  81;

$$

WAZ026-027-041>044-520-521-040700-
EAST SLOPES

CITY           SKY/WX    TMP DP  RH WIND       PRES   REMARKS
OMAK           CLEAR     52  32  46 W8        29.86S
6HR MIN TEMP:  49; 6HR MAX TEMP:  72;

WENATCHEE      CLEAR     59  31  34 NE5       29.85S
6HR MIN TEMP:  57; 6HR MAX TEMP:  74;

ELLENSBURG     CLEAR     52  32  46 N6        29.87S
6HR MIN TEMP:  50; 6HR MAX TEMP:  76;

YAKIMA         CLEAR     50  36  58 W6        29.86R
6HR MIN TEMP:  50; 6HR MAX TEMP:  78;

$$

WAZ028-034-035-040700-
COLUMBIA BASIN

CITY           SKY/WX    TMP DP  RH WIND       PRES   REMARKS
EPHRATA        CLEAR     58  26  29 NW5       29.85S
6HR MIN TEMP:  57; 6HR MAX TEMP:  74;

MOSES LAKE     CLEAR     52  33  48 NE5       29.86S
6HR MIN TEMP:  52; 6HR MAX TEMP:  74;

PASCO          CLEAR     50  43  77 CALM      29.84S
6HR MIN TEMP:  49; 6HR MAX TEMP:  77;

HERMISTON, OR  CLEAR     51  31  46 S8        29.84R
6HR MIN TEMP:  51; 6HR MAX TEMP:  77;

$$

WAZ036>038-040700-
NORTHEAST WASHINGTON

CITY           SKY/WX    TMP DP  RH WIND       PRES   REMARKS
SPOKANE GEIGER CLEAR     51  27  39 W5        29.88F
6HR MIN TEMP:  51; 6HR MAX TEMP:  69;

SPOKANE FELTS  CLEAR     48  35  60 CALM      29.89S
6HR MIN TEMP:  48; 6HR MAX TEMP:  71;

FAIRCHILD AFB  CLEAR     47  27  47 W3        29.88F
6HR MIN TEMP:  46; 6HR MAX TEMP:  67;

COEURDALENE,ID CLEAR     45  28  53 E3        29.90S
6HR MIN TEMP:  45; 6HR MAX TEMP:  70;

DEER PARK      CLEAR     40  31  70 CALM      29.89S
6HR MIN TEMP:  39; 6HR MAX TEMP:  69;

$$

WAZ029>033-040700-
SOUTHEAST WASHINGTON

CITY           SKY/WX    TMP DP  RH WIND       PRES   REMARKS
PULLMAN        CLEAR     44  29  55 CALM      29.90F
6HR MIN TEMP:  44; 6HR MAX TEMP:  69;

LEWISTON, ID   CLEAR     57  28  33 S7        29.85S
6HR MIN TEMP:  57; 6HR MAX TEMP:  76;

WALLA WALLA    CLEAR     54  35  48 E7        29.85R
6HR MIN TEMP:  54; 6HR MAX TEMP:  77;

PENDLETON, OR  CLEAR     51  36  56 SE8       29.86R
6HR MIN TEMP:  51; 6HR MAX TEMP:  72;

$$



USA.gov is the U.S. government's official web portal to all federal, state and local government web resources and services.